Weather History for Charleston, WV

Change the Weather History Date:

Tuesday, February 26, 2013

  Actual Average Record
Temperature  
Mean Temperature 45 °F 40 °F  
Max Temperature 53 °F 50 °F 80 °F (1930)
Min Temperature 36 °F 31 °F 3 °F (1967)
Degree Days  
Heating Degree Days 20 25  
Month to date heating degree days 750 717  
Since 1 July heating degree days 3327 3405  
Cooling Degree Days 0 0  
Month to date cooling degree days 0 0  
Year to date cooling degree days 0 0  
Moisture  
Dew Point 35 °F    
Average Humidity 69    
Maximum Humidity 92    
Minimum Humidity 45    
Precipitation  
Precipitation 0.29 in 0.11 in 1.49 in (1945)
Month to date precipitation 1.58 2.94  
Year to date precipitation 5.79 5.94  
Snow  
Snow 0.00 in - - ()
Month to date snowfall 6.5  
Since 1 September snowfall 22.8  
Snow Depth 0.00 in    
Sea Level Pressure  
Sea Level Pressure 29.65 in    
Wind  
Wind Speed 9 mph (SE)    
Max Wind Speed 25 mph    
Max Gust Speed 38 mph    
Visibility 9 miles    
Events Rain    
T = Trace of Precipitation, MM = Missing Value Source: NWS Daily Summary

Daily Weather History Graph

Daily Weather History Graph

Search for Another Location

Airport:

Trip Planner

Search our weather history database for the weather conditions in past years. The results will help you decide how hot, cold, wet, or windy it might be!

Date:

Astronomy

Feb. 26, 2013 Rise Set
Actual Time 7:02 AM EST 6:16 PM EST
Civil Twilight 6:35 AM EST 6:43 PM EST
Nautical Twilight 6:04 AM EST 7:14 PM EST
Astronomical Twilight 5:34 AM EST 7:44 PM EST
Moon 7:30 PM EST (2/26) 7:05 AM EST (2/26)
Length of Visible Light 12h 07m
Length of Day
11h 14m
Full, 99% of the Moon is Illuminated
Feb 26
Full
Mar 4
Last Quarter
Mar 11
New
Mar 19
First Quarter
Mar 27
Full

Hourly Weather History & Observations

Time (EST) Temp. Windchill Dew Point Humidity Pressure Visibility Wind Dir Wind Speed Gust Speed Precip Events Conditions
12:54 AM 37.9 °F 34.4 °F 21.0 °F 51% 29.97 in 10.0 mi East 4.6 mph - N/A   Clear
1:54 AM 39.9 °F 35.8 °F 23.0 °F 51% 29.94 in 10.0 mi East 5.8 mph - N/A   Mostly Cloudy
2:54 AM 41.0 °F 35.2 °F 23.0 °F 49% 29.90 in 10.0 mi East 9.2 mph - N/A   Mostly Cloudy
3:54 AM 42.1 °F 37.1 °F 23.0 °F 47% 29.86 in 10.0 mi SE 8.1 mph - N/A   Mostly Cloudy
4:54 AM 43.0 °F 40.3 °F 24.1 °F 47% 29.82 in 10.0 mi East 4.6 mph - N/A   Overcast
5:54 AM 42.1 °F 38.4 °F 28.0 °F 58% 29.80 in 10.0 mi East 5.8 mph - 0.00 in Rain Light Rain
6:54 AM 42.1 °F 38.4 °F 30.9 °F 65% 29.77 in 10.0 mi ESE 5.8 mph - 0.03 in   Overcast
7:54 AM 43.0 °F 37.7 °F 28.9 °F 58% 29.73 in 10.0 mi ESE 9.2 mph - N/A   Partly Cloudy
8:54 AM 44.1 °F 39.0 °F 30.9 °F 60% 29.77 in 10.0 mi SE 9.2 mph 18.4 mph 0.00 in Rain Light Rain
9:54 AM 42.1 °F 34.9 °F 34.0 °F 73% 29.71 in 8.0 mi ESE 13.8 mph 20.7 mph 0.07 in Rain Rain
10:54 AM 43.0 °F 37.7 °F 34.0 °F 71% 29.68 in 8.0 mi ESE 9.2 mph 26.5 mph 0.02 in Rain Light Rain
11:54 AM 45.0 °F 39.3 °F 36.0 °F 71% 29.63 in 10.0 mi ESE 11.5 mph 23.0 mph 0.00 in Rain Light Rain
12:54 PM 50.0 °F - 37.9 °F 63% 29.56 in 10.0 mi ESE 19.6 mph 29.9 mph 0.00 in   Mostly Cloudy
1:54 PM 53.1 °F - 37.0 °F 55% 29.54 in 10.0 mi SE 11.5 mph 28.8 mph N/A   Overcast
2:54 PM 50.0 °F - 39.0 °F 66% 29.53 in 10.0 mi South 11.5 mph 24.2 mph 0.03 in Rain Light Rain
3:54 PM 50.0 °F - 39.9 °F 68% 29.50 in 10.0 mi SSE 12.7 mph 23.0 mph 0.06 in   Overcast
4:54 PM 48.9 °F - 39.0 °F 69% 29.49 in 10.0 mi SE 8.1 mph 19.6 mph N/A   Overcast
5:54 PM 48.9 °F - 37.9 °F 66% 29.48 in 10.0 mi SE 13.8 mph 26.5 mph N/A   Mostly Cloudy
6:54 PM 48.9 °F - 37.9 °F 66% 29.51 in 10.0 mi SE 8.1 mph - N/A   Overcast
7:54 PM 48.9 °F - 37.9 °F 66% 29.51 in 10.0 mi SSE 9.2 mph - 0.00 in Rain Light Rain
8:13 PM 46.4 °F 41.9 °F 39.2 °F 76% 29.55 in 7.0 mi West 9.2 mph 21.9 mph 0.00 in Rain Light Rain
8:54 PM 46.0 °F 44.8 °F 42.1 °F 86% 29.55 in 10.0 mi SE 3.5 mph - 0.01 in Rain Light Rain
9:54 PM 45.0 °F 43.5 °F 43.0 °F 93% 29.57 in 7.0 mi SE 3.5 mph - 0.03 in Rain Light Rain
10:05 PM 44.6 °F 43.1 °F 42.8 °F 93% 29.57 in 1.2 mi West 3.5 mph - 0.00 in Rain Light Rain
10:08 PM 44.6 °F 42.2 °F 42.8 °F 93% 29.57 in 6.0 mi West 4.6 mph - 0.00 in Rain Light Rain
10:54 PM 46.0 °F 43.1 °F 42.1 °F 86% 29.58 in 10.0 mi SW 5.8 mph - 0.03 in Rain Light Rain
11:54 PM 44.1 °F 41.5 °F 39.0 °F 82% 29.58 in 10.0 mi SW 4.6 mph - 0.01 in   Overcast